www.pogodaiklimat.ru

Погода и климат >> Архив погоды >> Узбекистан >> Жаслык


ПОГОДА в Жаслыке

  • Прогноз погоды в Жаслыке
  • Монитор погоды в Жаслыке
  • Климат города

АРХИВ ПОГОДЫ в Жаслыке

Время (UTC), дата Ветер
(напр.,м/с)
 
Видим.   Явления Облачность Т
(С)
Тd
(С)
f
(%)
Тe
(С)
Тes
(С)
Комфортность P
(гПа)
Po
(гПа)
Тmin
(С)
Tmax
(С)
R
(мм)
R24
(мм)
S
(см)
03 16.06 СВ 12 20 км ясно +24.8 +13.6 50 +27 +27 жарко 1002.7 987.3
06 16.06 З 7 20 км ясно +31.3 +11.2 29 +31 +36 жарко 1002.7 997.6 +20.8
09 16.06 СЗ 17 20 км ясно +33.9 +8.3 21 +32 +32 жарко 1003.8 988.4
12 16.06 СЗ 15 20 км ясно +35.0 +7.8 19 +33 +33 жарко 1004.3 988.8
15 16.06 С 20 20 км ясно +32.4 +9.9 25 +32 +32 жарко 1004.7 989.2 +35.7
18 16.06 СЗ 15 20 км 3/3 600 м
[Cb cap]
+26.9 +8.1 30 +27 +27 жарко 1007.3 991.9 +35.7
21 16.06 СЗ 15 20 км ясно +23.8 +7.8 36 +24 +24 комфорт 1008.1 992.7
00 17.06 СЗ 13 20 км ясно +21.2 +8.6 44 +22 +22 комфорт 1007.9 992.5
03 17.06 СЗ 8 20 км ясно +22.3 +11.0 49 +24 +25 комфорт 1009.2 993.8
06 17.06 С 5 20 км 3/0
[Ci sp]
+28.1 +10.2 33 +29 +36 жарко 1009.1 993.7 +20.1
09 17.06 З 3 20 км 9/0
[Ac trans]
+29.1 +7.1 25 +28 +35 жарко 1008.5 993.1
12 17.06 СЗ 8 20 км 5/4 1000 м
[Cu med, cong]
+25.9 +12.8 44 +28 +29 жарко 1009.0 993.6
15 17.06 СЗ 13 20 км {ливн. осадки} 9/9 600 м
[Cb cap]
+17.2 +12.4 73 +15 +15 1011.2 995.7 +31.3
18 17.06 СЗ 5 20 км 3/3 600 м
[Cb cap]
+15.4 +13.6 89 +14 +14 1011.8 996.4 +31.3 0.0
21 17.06 З 2 20 км ясно +14.0 +13.1 94 +13 +13 1012.1 996.6
00 18.06 З 2 20 км ясно +13.3 +12.4 94 +12 +12 1012.5 997.1
03 18.06 СЗ 1 20 км ясно +16.7 +12.1 74 +18 +22 1013.9 998.5
06 18.06 СЗ 5 20 км 5/5 1000 м
[Cu hum]
+23.3 +9.8 42 +25 +29 комфорт 1014.2 998.8 +12.2
09 18.06 С 7 20 км 3/3 1000 м
[Cu hum]
+27.1 +5.8 26 +26 +30 жарко 1013.2 997.8
12 18.06 С 5 20 км 3/1 1000 м
[Cu hum Ci fib]
+28.3 +4.7 22 +27 +31 жарко 1012.2 996.8
15 18.06 С 5 20 км 3/0
[Ci sp]
+27.7 +4.9 23 +26 +27 жарко 1011.9 996.5 +29.4
18 18.06 СЗ 2 20 км 3/0
[Ci sp]
+23.1 +5.6 32 +23 +23 комфорт 1012.5 997.1 +29.4
21 18.06 СВ 1 20 км ясно +17.6 +4.9 43 +19 +19 1012.3 997.3
00 19.06 С 2 20 км 4/0
[Ci sp]
+17.0 +5.6 47 +17 +17 1012.0 996.5
03 19.06 СВ 3 20 км 1/0
[Ci sp]
+23.2 +5.9 33 +24 +27 комфорт 1012.5 997.0
06 19.06 В 1 20 км 3/0
[Ci sp]
+28.9 +4.3 21 +27 +44 жарко 1012.1 997.5 +15.7
09 19.06 С 1 20 км 6/0
[Ci sp]
+30.4 +2.8 17 +28 +48 жарко 1010.5 995.1
12 19.06 З 3 20 км 4/0
[Ci sp]
+32.2 +2.3 15 +29 +36 жарко 1009.0 993.5
15 19.06 СВ 2 20 км 4/0
[Ci fib]
+31.1 +2.6 16 +29 +29 жарко 1008.2 992.8 +33.4
18 19.06 ЮВ 3 20 км ясно +24.4 +3.9 26 +24 +24 комфорт 1008.4 993.0 +33.4
21 19.06 ЮВ 2 20 км ясно +21.5 +5.0 34 +22 +22 комфорт 1007.0 991.6
00 20.06 ЮВ 7 20 км 3/3 600 м
[Cb cap]
+21.2 +4.5 33 +21 +21 комфорт 1006.7 991.3
03 20.06 ЮВ 3 20 км 3/3 600 м
[Cb cap]
+25.8 +4.0 24 +25 +27 комфорт 1006.6 991.2
06 20.06 С 2 20 км 5/3 600 м
[Cb cap Ac trans]
+29.5 +4.6 21 +28 +37 жарко 1006.9 991.5 +20.1
09 20.06 СВ 7 20 км 9/9 600 м
[Cb cap]
+32.7 +6.1 19 +31 +31 жарко 1005.5 990.0
12 20.06 В 13 20 км 9/9 1000 м
[Cb cap]
+34.9 +7.8 19 +33 +33 жарко 1003.2 987.7
15 20.06 В 20
{25}
20 км 9/3 1000 м
[Cu med, cong Ac trans]
+30.3 +9.1 27 +30 +30 жарко 1002.9 987.5 +35.3
18 20.06 В 20
{25}
20 км 6/4 1000 м
[Cu med, cong Ac trans]
+27.1 +10.0 34 +28 +28 жарко 1002.7 987.3 +35.3
21 20.06 В 15 20 км 5/0
[Ac trans]
+25.3 +10.6 40 +26 +26 жарко 1002.2 986.8
00 21.06 СВ 15 20 км 10/10 600 м
[Cb cap]
+23.9 +11.1 45 +25 +25 комфорт 1002.0 986.5
03 21.06 В 13 20 км гроза без осадков 10/10 600 м
[Cb cap]
+24.4 +10.6 42 +26 +26 жарко 1002.0 986.5
06 21.06 18 20 км в посл. час ливневой дождь {гроза} 10/10 600 м
[Cb cap]
+27.4 +8.9 31 1000.0 984.6 +23.5
09 21.06 В 20 20 км в посл. час ливневой дождь {гроза} 10/10 600 м
[Cb cap]
+28.7 +11.3 34 +29 +29 жарко 998.5 983.1
12 21.06 В 12 10 км ливневой дождь, в посл. час гроза 9/9 600 м
[Cb cap]
+30.1 +14.2 38 +32 +32 жарко 998.0 982.6
15 21.06 В 15 20 км 4/4 600 м
[Cu med, cong]
+28.6 +12.3 37 +30 +30 жарко 996.4 980.9 +34.3
18 21.06 Ю 12 20 км ясно +24.0 +12.6 49 +26 +26 жарко 998.3 982.8 +34.3 3
21 21.06 З 10 20 км ясно +20.1 +14.1 68 +22 +22 комфорт 998.9 983.4
00 22.06 З 5 20 км ясно +18.6 +14.3 76 +19 +19 999.4 984.0
03 22.06 З 17 20 км ясно +20.5 +14.6 69 +22 +22 комфорт 1000.4 985.0
06 22.06 С 20
{25}
20 км 3/3 1000 м
[Cu hum]
+26.2 +14.2 48 +29 +29 жарко 1000.6 985.1 +18.1
09 22.06 С 17
{22}
20 км 8/8 1000 м
[Cu med, cong]
+30.2 +14.4 38 +32 +32 жарко 1000.7 985.3
12 22.06 С 20
{25}
20 км 8/8 600 м
[Cb cap]
+30.1 +13.6 36 +32 +32 жарко 1001.0 985.6
15 22.06 С 13
{20}
20 км {ливн. осадки} 3/3 1000 м
[Cu med, cong]
+28.1 +13.8 41 +30 +30 жарко 1002.7 987.2 +32.6
18 22.06 С 7 20 км 1/1 600 м
[Cb cap]
+22.8 +15.7 64 +27 +27 душно 1004.8 989.4 +32.6 2
21 22.06 З 1 20 км ясно +20.0 +15.2 74 +23 +23 комфорт 1005.8 990.4
00 23.06 З 2 20 км 4/0
[Ac trans]
+19.2 +12.2 64 +21 +21 комфорт 1006.4 990.9

 

Местоположение метеостанции Жаслык (Каракалпакстан, Узбекистан): широта 43.88 долгота 57.52 высота над уровнем моря 128 м.

В архиве по умолчанию представлена погода в Жаслыке за последнюю неделю. Архивные данные за месяц целиком и за предыдущие месяцы, начиная с января 2011 года, Вы можете получить, выбрав интересующий диапазон дат из раскрывающегося списка и нажав кнопку "Ввод!".

Внимание! Время в таблицах - всемирное. Для получения местного времени необходимо прибавить поправку, которая в Жаслыке равна 5 ч.

Смотрите также архив погоды в соседних городах и на ближайших метеорологических станциях:

Погода в Муйнаке (Каракалпакстан, Узбекистан) (98 км)
Погода в Каракалпакии (Каракалпакстан, Узбекистан) (144 км)
Погода в Кунграде (Каракалпакстан, Узбекистан) (144 км)
Погода в Саме (Мангистауская область, Казахстан) (202 км)
Погода в Чимбае (Каракалпакстан, Узбекистан) (213 км)
Погода в Кенеургенче (Дашогузский велаят, Туркменистан) (219 км)
Погода в Тахтакупыре (Каракалпакстан, Узбекистан) (231 км)
Погода в Нукусе (Каракалпакстан, Узбекистан) (233 км)
Погода в Бейнеу (Мангистауская область, Казахстан) (244 км)
Погода в Шах-Сенеме (Дашогузский велаят, Туркменистан) (274 км)

Пояснения к столбцам:

Ветер - указаны скорость ветра в м/с - средняя за 10 мин, порывы в срок и между сроками (в фигурных скобках) и направление, откуда дует ветер: С - северный, СВ - северо-восточный, В - восточный, ЮВ - юго-восточный, Ю - южный, ЮЗ - юго-западный, З - западный, СЗ - северо-западный.
Видимость - горизонтальная дальность видимости в метрах или километрах. При видимости от 1 до 10 км при отсутствии осадков обычно наблюдается дымка, при ухудшении видимости до 1 км и менее - туман. В сухую погоду видимость может ухудшаться дымом, пылью или мглою.
Явления - указаны атмосферные явления, наблюдавшиеся в срок или в последний час перед сроком; фигурными скобками обозначены явления, наблюдавшиеся между сроками (за 1-3 часа до срока); квадратными скобками обозначены град или гололедные отложения с указанием их диаметра в мм.
Облачность - указаны через наклонную черту общая и нижняя облачность в баллах и высота нижней границы облаков в метрах; квадратными скобками обозначены формы облаков: Ci - перистые, Cs - перисто-слоистые, Cc - перисто-кучевые, Ac - высококучевые, As - высокослоистые, Sc - слоисто-кучевые, Ns - слоисто-дождевые, Cu - кучевые, Cb - кучево-дождевые. Подробнее классификацию облаков см. в Атласе облаков (PDF).
T - Температура воздуха - температура, измеренная на высоте 2 м над землей.
Td - Температура точки росы - температура, при понижении до которой содержащийся в воздухе водяной пар достигнет насыщения.
f - Относительная влажность воздуха - влажноcть воздуха, измеренная на высоте 2 м над землей.
Te - Эффективная температура - температура, которую ощущает одетый по сезону человек в тени. Характеристика душности погоды. При расчете учитывается влияние влажности воздуха и скорости ветра на теплоощущения человека.
Tes - Эффективная температура на солнце - температура, которую ощущает человек, с поправкой на солнечный нагрев. Характеристика знойности погоды. Зависит от высоты солнца над горизонтом, облачности и скорости ветра. Ночью, в пасмурную погоду, а также при ветре 12 м/с и более поправка равна нулю.
P - Атмосферное давление - приведенное к уровню моря атмосферное давление.
Po - Атмосферное давление - измеренное на уровне метеостанции атмосферное давление.
Tmin - Минимальная температура - минимум температуры воздуха на высоте 2 м над землей.
Tmax - Максимальная температура - максимум температуры воздуха на высоте 2 м над землей.
R - Количество осадков - Количество выпавших осадков за период времени, мм. При наведении курсора мыши на число - период времени, за который выпало указанное количество осадков.
R24 - Количество осадков - Количество выпавших осадков за 24 часа, мм.
S - Снежный покров - Высота снежного покрова, см. При наведении курсора мыши на число - состояние снежного покрова и степень покрытия местности в баллах.